[[{"header":{"parameterUnit":"m.s-1","parameterCategory":1,"la1":30.2991,"la2":30.254,"lo1":-89.0895,"lo2":-89.0444,"dy":0.0017,"dx":0.0017,"nx":28,"ny":28,"refTime":"2024-03-30T09:00:00:Z","depth":0,"parameterNumber":2,"parameterNumberName":"U-component_of_WINDS"},"data":[0,0,0,0,0,0,0,0,0,0,0,0,0,0,0,0,0,0,0,0,0,0,0,0,0,0,0,0,0,0,0,0,0,0,0,0,0,0,0,0,0,0,0,0,0,0,0,0,0,0,0,0,0,0,0,0,0,0,-2.2506,-2.2505,0,-2.246,-2.2459,-2.2459,-2.2406,-2.2405,-2.2405,-2.2404,-2.2356,-2.2355,-2.2354,0,0,0,0,0,0,0,0,0,0,0,0,0,-2.2546,-2.2546,-2.2506,-2.2505,-2.2505,-2.246,-2.2459,-2.2459,-2.2406,-2.2405,-2.2404,-2.2403,-2.2356,-2.2355,-2.2354,0,0,0,0,0,0,0,0,0,0,0,0,0,-2.2517,-2.2545,-2.2506,-2.2473,-2.247,-2.246,-2.2459,-2.2459,-2.2406,-2.2405,-2.2404,-2.2403,-2.2356,-2.2355,-2.2354,-2.2373,0,0,-2.2352,-2.2351,0,0,0,0,0,0,0,0,-2.2519,-2.2516,-2.2478,-2.2475,-2.2471,-2.2438,-2.2456,-2.243,-2.2407,-2.243,-2.2404,-2.2402,-2.2384,-2.238,-2.2374,-2.2371,-2.2369,-2.2352,-2.2351,-2.2351,-2.2351,0,0,0,0,0,0,0,-2.2521,-2.2518,-2.2488,-2.2478,-2.2474,-2.246,-2.2455,-2.2451,-2.2414,-2.2428,-2.2424,-2.242,-2.2382,-2.2375,-2.2373,-2.2368,-2.2352,-2.2351,-2.2351,-2.235,-2.2377,-2.2378,0,0,0,0,0,0,-2.2528,-2.252,-2.2489,-2.2486,-2.2493,-2.246,-2.2454,-2.245,-2.2414,-2.2408,-2.2421,-2.2417,-2.2377,-2.2374,-2.2371,-2.239,-2.2351,-2.235,-2.235,-2.2376,-2.2377,-2.2378,0,0,0,0,0,0,-2.2529,-2.2526,-2.2491,-2.2502,-2.2496,-2.2461,-2.2456,-2.2449,-2.2443,-2.2408,-2.2402,-2.2421,-2.2376,-2.2372,-2.2373,-2.2387,-2.235,-2.2349,-2.2374,-2.2376,-2.2378,-2.2428,0,0,0,0,0,0,-2.2531,-2.2527,-2.2534,-2.2502,-2.2496,-2.2494,-2.2457,-2.2449,-2.2442,-2.2437,-2.2407,-2.2401,-2.2375,-2.2374,-2.2372,-2.2386,-2.2348,-2.2373,-2.2375,-2.2377,-2.2425,-2.2432,-2.2437,0,0,0,0,0,-2.2532,-2.255,-2.2534,-2.2531,-2.2504,-2.2495,-2.2491,-2.2461,-2.2444,-2.245,-2.2428,-2.2402,-2.2387,-2.2375,-2.2372,-2.2385,-2.2372,-2.2374,-2.2377,-2.2422,-2.243,-2.2437,0,0,0,0,0,0,-2.2583,-2.2545,-2.2527,-2.2535,-2.2519,-2.2486,-2.2493,-2.2471,-2.2459,-2.2455,-2.2418,-2.2411,-2.2416,-2.2401,-2.2389,-2.2401,-2.2375,-2.2378,-2.2411,-2.2418,-2.2424,-2.2427,-2.2348,0,0,0,0,0,-2.2595,-2.2591,-2.2558,-2.2568,-2.2561,-2.2529,-2.2524,-2.2502,-2.2483,-2.2476,-2.2454,-2.2436,-2.2427,-2.2422,-2.2412,-2.2423,-2.2415,-2.2431,-2.2437,-2.2442,-2.2444,-2.2448,-2.2454,-2.2387,-2.2387,-2.2387,0,0,-2.262,-2.2599,-2.2598,-2.2578,-2.2562,-2.2559,-2.2523,-2.2521,-2.2517,-2.2475,-2.2474,-2.2458,-2.2436,-2.2442,-2.2443,-2.2429,-2.2461,-2.2446,-2.245,-2.2449,-2.2451,-2.2458,-2.2463,-2.2389,-2.2389,-2.2388,0,0,-2.2663,-2.2647,-2.2653,-2.2639,-2.2616,-2.2595,-2.2597,-2.2568,-2.2555,-2.2554,-2.2522,-2.2518,-2.2503,-2.2489,-2.2479,-2.2518,-2.2493,-2.2516,-2.2546,-2.2551,-2.2556,-2.256,-2.2573,-2.2578,-2.2518,-2.2518,-2.2518,0,-2.2696,-2.269,-2.2659,-2.2659,-2.265,-2.2613,-2.2619,-2.2606,-2.2582,-2.2576,-2.2561,-2.2543,-2.2525,-2.2527,-2.2536,-2.253,-2.253,-2.2518,-2.2558,-2.2562,-2.2566,-2.2577,-2.2582,-2.2521,-2.2521,-2.252,-2.252,0,-2.2732,-2.2728,-2.2735,-2.2713,-2.2706,-2.2708,-2.2678,-2.2674,-2.2654,-2.2634,-2.2633,-2.2611,-2.2595,-2.2595,-2.2574,-2.2593,-2.2585,-2.2565,-2.2537,-2.2575,-2.2585,-2.259,-2.2525,-2.2524,-2.2523,-2.2522,0,0,-2.2804,-2.2765,-2.2768,-2.2757,-2.273,-2.2726,-2.2728,-2.2713,-2.271,-2.2695,-2.2694,-2.2683,-2.2664,-2.2654,-2.2632,-2.2636,-2.2666,-2.2614,-2.2613,-2.2624,-2.2684,-2.2699,-2.2705,-2.2651,-2.2652,-2.2652,-2.2686,0,-2.2841,-2.2841,-2.2813,-2.282,-2.2816,-2.2781,-2.2782,-2.2765,-2.2747,-2.274,-2.272,-2.2712,-2.2688,-2.2682,-2.2684,-2.2662,-2.2678,-2.266,-2.2649,-2.2649,-2.2654,-2.271,-2.2726,-2.2758,-2.269,-2.269,-2.2691,0,-2.2884,-2.2871,-2.2878,-2.2851,-2.2848,-2.2849,-2.2833,-2.2828,-2.2808,-2.2794,-2.2783,-2.2759,-2.2757,-2.2733,-2.273,-2.2718,-2.2712,-2.2701,-2.2701,-2.2698,-2.2671,-2.2707,-2.2768,-2.2773,-2.2697,-2.2697,-2.2696,0,-2.2934,-2.2919,-2.2921,-2.2913,-2.2882,-2.2883,-2.287,-2.2849,-2.2842,-2.2829,-2.2824,-2.281,-2.2802,-2.2792,-2.2764,-2.275,-2.2764,-2.2738,-2.2752,-2.2753,-2.2755,-2.2755,-2.2815,-2.2754,-2.2754,-2.2754,-2.2754,0,-2.2978,-2.2983,-2.2943,-2.2944,-2.2949,-2.2918,-2.2923,-2.2907,-2.2889,-2.2885,-2.2855,-2.2852,-2.2817,-2.281,-2.2788,-2.2789,-2.2786,-2.2774,-2.2768,-2.2776,-2.2777,-2.277,-2.2767,-2.2755,-2.2755,-2.2755,-2.2755,0,-2.3034,-2.3008,-2.3008,-2.2978,-2.2971,-2.2976,-2.295,-2.2949,-2.293,-2.2926,-2.2923,-2.2892,-2.2883,-2.2855,-2.2838,-2.2824,-2.283,-2.2819,-2.2837,-2.2832,-2.2848,-2.2846,-2.2904,-2.291,-2.2847,-2.2847,-2.2848,0,-2.3063,-2.3066,-2.3037,-2.3033,-2.3021,-2.3015,-2.3008,-2.2978,-2.2971,-2.2949,-2.2951,-2.294,-2.2929,-2.2915,-2.2891,-2.2878,-2.2866,-2.2887,-2.2864,-2.2871,-2.2865,-2.2864,-2.2864,-2.2892,-2.2893,-2.2893,-2.2894,0,-2.3116,-2.3103,-2.3094,-2.3081,-2.3074,-2.3062,-2.3048,-2.3046,-2.3012,-2.3006,-2.2997,-2.2988,-2.2972,-2.296,-2.2943,-2.2929,-2.2906,-2.2902,-2.2904,-2.2912,-2.2921,-2.2915,-2.2849,-2.29,-2.29,-2.2899,-2.2899,-2.2898,-2.3159,-2.316,-2.314,-2.3131,-2.3117,-2.3105,-2.3103,-2.3083,-2.3075,-2.3059,-2.3042,-2.3034,-2.3014,-2.2989,-2.2977,-2.297,-2.2957,-2.2961,-2.2962,-2.2963,-2.2966,-2.2924,-2.2967,-2.2967,-2.2966,-2.2966,-2.2966,0,-2.3209,-2.3195,-2.3187,-2.3169,-2.3162,-2.3141,-2.3125,-2.312,-2.3114,-2.3098,-2.3088,-2.3076,-2.3065,-2.304,-2.3027,-2.3026,-2.3014,-2.3023,-2.3022,-2.3019,-2.2979,-2.2977,-2.3032,-2.3032,-2.3032,-2.3032,-2.3032,-2.3032,-2.3235,-2.3235,-2.322,-2.3214,-2.3199,-2.3191,-2.3183,-2.3172,-2.3159,-2.3148,-2.3138,-2.3122,-2.3102,-2.3087,-2.3076,-2.3069,-2.3064,-2.3076,-2.3066,-2.3028,-2.3022,-2.3016,-2.3014,-2.3076,-2.3076,-2.3106,-2.3106,-2.3106]},{"header":{"parameterUnit":"m.s-1","parameterCategory":1,"la1":30.2991,"la2":30.254,"lo1":-89.0895,"lo2":-89.0444,"dy":0.0017,"dx":0.0017,"nx":28,"ny":28,"refTime":"2024-03-30T09:00:00:Z","depth":0,"parameterNumber":3,"parameterNumberName":"V-component_of_WINDS"},"data":[0,0,0,0,0,0,0,0,0,0,0,0,0,0,0,0,0,0,0,0,0,0,0,0,0,0,0,0,0,0,0,0,0,0,0,0,0,0,0,0,0,0,0,0,0,0,0,0,0,0,0,0,0,0,0,0,0,0,2.8191,2.819,0,2.8172,2.8171,2.8171,2.8164,2.8164,2.8164,2.8164,2.8141,2.814,2.814,0,0,0,0,0,0,0,0,0,0,0,0,0,2.8219,2.8218,2.8191,2.819,2.819,2.8172,2.8171,2.8171,2.8164,2.8164,2.8164,2.8164,2.8141,2.8141,2.814,0,0,0,0,0,0,0,0,0,0,0,0,0,2.8204,2.8218,2.8191,2.8184,2.8184,2.8172,2.8171,2.8171,2.8164,2.8164,2.8164,2.8164,2.8142,2.8141,2.814,2.8131,0,0,2.8136,2.8136,0,0,0,0,0,0,0,0,2.8205,2.8203,2.8186,2.8185,2.8184,2.817,2.8173,2.8157,2.8164,2.8171,2.8164,2.8164,2.815,2.8149,2.8145,2.813,2.8129,2.8136,2.8136,2.8135,2.8135,0,0,0,0,0,0,0,2.8206,2.8203,2.8183,2.8185,2.8184,2.8182,2.818,2.817,2.816,2.8171,2.817,2.8168,2.815,2.8146,2.8144,2.8129,2.8136,2.8136,2.8135,2.8134,2.8108,2.8108,0,0,0,0,0,0,2.8208,2.8204,2.8183,2.8182,2.8195,2.8181,2.8179,2.8174,2.8161,2.8159,2.8168,2.8168,2.8148,2.8145,2.8143,2.8134,2.8135,2.8134,2.8134,2.8108,2.8108,2.8108,0,0,0,0,0,0,2.8209,2.8206,2.8184,2.8193,2.819,2.8181,2.8176,2.8174,2.817,2.8159,2.8157,2.8166,2.8148,2.8145,2.8135,2.8133,2.8134,2.8133,2.8108,2.8108,2.8108,2.8114,0,0,0,0,0,0,2.8209,2.8207,2.8204,2.8193,2.819,2.8177,2.8176,2.8174,2.8169,2.8168,2.8156,2.8154,2.8147,2.8137,2.8134,2.8132,2.8132,2.8108,2.8108,2.8108,2.8114,2.8114,2.8114,0,0,0,0,0,2.8211,2.8205,2.8203,2.8201,2.8186,2.8177,2.8175,2.8168,2.8168,2.8165,2.8158,2.8154,2.8134,2.8136,2.8133,2.813,2.8108,2.8108,2.8108,2.8114,2.8114,2.8114,0,0,0,0,0,0,2.8213,2.8203,2.8202,2.8192,2.8186,2.8175,2.8171,2.8168,2.816,2.816,2.8152,2.8149,2.814,2.8134,2.8136,2.8122,2.8121,2.812,2.8126,2.8126,2.8126,2.8128,2.8131,0,0,0,0,0,2.8213,2.8207,2.8198,2.8191,2.8188,2.818,2.8176,2.8172,2.8164,2.8161,2.8153,2.8145,2.8136,2.8131,2.8123,2.8113,2.8111,2.811,2.811,2.811,2.811,2.8106,2.8105,2.8107,2.8107,2.8107,0,0,2.8212,2.8206,2.8202,2.8192,2.8186,2.818,2.8178,2.817,2.8166,2.8159,2.815,2.8144,2.8134,2.8125,2.8121,2.812,2.8109,2.811,2.811,2.8109,2.8105,2.8105,2.8105,2.8107,2.8107,2.8107,0,0,2.8207,2.8202,2.8196,2.8191,2.8183,2.8178,2.8177,2.8168,2.8164,2.8155,2.8151,2.8144,2.813,2.8124,2.8119,2.8114,2.811,2.8112,2.8112,2.8108,2.8108,2.8108,2.8107,2.8107,2.8111,2.8111,2.8111,0,2.8206,2.8198,2.8193,2.8187,2.8183,2.8178,2.8173,2.8167,2.8157,2.8154,2.8153,2.8137,2.8129,2.812,2.8119,2.8115,2.8113,2.8113,2.8109,2.8109,2.8108,2.8107,2.8107,2.8111,2.8111,2.8111,2.8111,0,2.8198,2.8192,2.8188,2.818,2.8175,2.8169,2.8163,2.8159,2.8156,2.8151,2.8143,2.8135,2.8126,2.8123,2.8119,2.8113,2.8113,2.8111,2.8109,2.8109,2.8108,2.8107,2.8112,2.8112,2.8111,2.8111,0,0,2.8192,2.8184,2.8182,2.8179,2.8171,2.8166,2.816,2.8153,2.815,2.8143,2.8138,2.8127,2.8126,2.8121,2.8116,2.8113,2.8111,2.8111,2.8111,2.8112,2.8105,2.8107,2.8107,2.8109,2.8109,2.8109,2.8106,0,2.8187,2.8177,2.8174,2.8166,2.8161,2.8158,2.8153,2.8147,2.8143,2.8138,2.8133,2.8126,2.8124,2.8121,2.8118,2.8112,2.811,2.8112,2.8104,2.8104,2.8107,2.8106,2.8107,2.8105,2.8106,2.8106,2.8106,0,2.8179,2.8174,2.8166,2.8161,2.8158,2.8154,2.8148,2.8143,2.8137,2.8134,2.8129,2.8126,2.8119,2.8119,2.8111,2.8113,2.8109,2.8106,2.8106,2.8105,2.8105,2.8105,2.8104,2.8104,2.8105,2.8105,2.8105,0,2.8177,2.8168,2.8163,2.816,2.8153,2.8151,2.8148,2.8142,2.8138,2.8133,2.813,2.8124,2.812,2.8115,2.811,2.811,2.8102,2.8101,2.81,2.81,2.8098,2.8098,2.8097,2.8095,2.8095,2.8095,2.8095,0,2.8171,2.8166,2.8162,2.8159,2.8154,2.815,2.8145,2.8142,2.8137,2.8133,2.8129,2.8125,2.8119,2.8114,2.811,2.8104,2.8102,2.81,2.8099,2.81,2.81,2.8098,2.8098,2.8095,2.8095,2.8095,2.8095,0,2.8167,2.8164,2.8159,2.8154,2.8152,2.8149,2.8144,2.8141,2.8138,2.8133,2.8131,2.8125,2.812,2.8115,2.8106,2.8104,2.8098,2.8097,2.8101,2.81,2.81,2.81,2.8096,2.8096,2.8095,2.8095,2.8095,0,2.8164,2.8161,2.8156,2.8154,2.8152,2.8147,2.8145,2.8141,2.8138,2.8132,2.813,2.8124,2.812,2.8111,2.8106,2.81,2.8098,2.8098,2.8097,2.81,2.8099,2.81,2.81,2.8098,2.8098,2.8098,2.8098,0,2.8158,2.8158,2.8154,2.8151,2.8148,2.8145,2.8141,2.8139,2.8135,2.8132,2.8127,2.8124,2.8117,2.8112,2.8106,2.8102,2.8099,2.8098,2.8098,2.8099,2.8102,2.8101,2.8102,2.8098,2.8098,2.8098,2.8098,2.8098,2.8155,2.8153,2.815,2.8147,2.8144,2.8142,2.8139,2.8136,2.8133,2.8128,2.8126,2.8121,2.8117,2.8109,2.8105,2.8101,2.8101,2.81,2.8099,2.8099,2.81,2.8103,2.81,2.81,2.81,2.81,2.81,0,2.815,2.8148,2.8146,2.8142,2.814,2.8139,2.8136,2.8134,2.813,2.8127,2.8123,2.8119,2.8114,2.811,2.8105,2.8103,2.8102,2.8102,2.8102,2.8101,2.8101,2.8102,2.8103,2.8103,2.8103,2.8103,2.8103,2.8103,2.8147,2.8143,2.8143,2.8139,2.8137,2.8134,2.8132,2.813,2.8127,2.8123,2.812,2.8117,2.8114,2.8109,2.8105,2.8104,2.8102,2.8103,2.8102,2.8101,2.8101,2.8101,2.8102,2.8103,2.8103,2.8102,2.8102,2.8102]}]]